Weather History for Mansfield, OH

Change the Weather History Date:

Tuesday, March 26, 2013

  Actual Average Record
Temperature  
Mean Temperature 37 °F 41 °F  
Max Temperature 42 °F 50 °F 76 °F (1967)
Min Temperature 31 °F 31 °F 5 °F (1940)
Degree Days  
Heating Degree Days 28 24  
Month to date heating degree days 850 751  
Since 1 July heating degree days 5223 5376  
Cooling Degree Days 0 0  
Month to date cooling degree days 0 0  
Year to date cooling degree days 0 0  
Moisture  
Dew Point 29 °F    
Average Humidity 72    
Maximum Humidity 92    
Minimum Humidity 51    
Precipitation  
Precipitation 0.01 in 0.13 in 0.98 in (1981)
Month to date precipitation 1.95 2.75  
Year to date precipitation 6.68 8.01  
Snow  
Snow 0.10 in 0.10 in - ()
Month to date snowfall 9.5 7.0  
Since 1 July snowfall 39.3 44.9  
Snow Depth T in    
Sea Level Pressure  
Sea Level Pressure 30.02 in    
Wind  
Wind Speed 9 mph (WNW)    
Max Wind Speed 15 mph    
Max Gust Speed 22 mph    
Visibility 8 miles    
Events Snow    
T = Trace of Precipitation, MM = Missing Value Source: NWS Daily Summary

Daily Weather History Graph

Daily Weather History Graph

Search for Another Location

Airport:

Trip Planner

Search our weather history database for the weather conditions in past years. The results will help you decide how hot, cold, wet, or windy it might be!

Date:

Astronomy

Mar. 26, 2013 Rise Set
Actual Time 7:23 AM EDT 7:48 PM EDT
Civil Twilight 6:55 AM EDT 8:16 PM EDT
Nautical Twilight 6:23 AM EDT 8:48 PM EDT
Astronomical Twilight 5:50 AM EDT 9:21 PM EDT
Moon 7:24 PM EDT (3/26) 6:39 AM EDT (3/26)
Length of Visible Light 13h 20m
Length of Day
12h 25m
Waxing Gibbous, 99% of the Moon is Illuminated
Mar 26
Waxing Gibbous
Mar 27
Full
Apr 3
Last Quarter
Apr 10
New
Apr 18
First Quarter

Hourly Weather History & Observations

Time (EDT) Temp. Windchill Dew Point Humidity Pressure Visibility Wind Dir Wind Speed Gust Speed Precip Events Conditions
12:20 AM 30.2 °F 21.9 °F 30.2 °F 100% 29.84 in 10.0 mi NW 9.2 mph - 0.00 in   Overcast
12:52 AM 30.9 °F 22.2 °F 28.9 °F 92% 29.88 in 10.0 mi NW 10.4 mph - 0.00 in   Overcast
1:52 AM 30.9 °F 22.2 °F 28.9 °F 92% 29.89 in 9.0 mi NW 10.4 mph - N/A   Overcast
2:52 AM 30.9 °F 23.5 °F 28.9 °F 92% 29.90 in 10.0 mi WNW 8.1 mph - N/A   Overcast
3:52 AM 30.9 °F 23.5 °F 28.9 °F 92% 29.91 in 9.0 mi WNW 8.1 mph - N/A   Overcast
4:52 AM 30.9 °F 25.2 °F 28.9 °F 92% 29.92 in 10.0 mi WNW 5.8 mph - N/A   Overcast
5:52 AM 30.9 °F 25.2 °F 28.9 °F 92% 29.94 in 10.0 mi WNW 5.8 mph - N/A   Overcast
6:52 AM 30.9 °F 23.5 °F 28.0 °F 89% 29.96 in 10.0 mi WNW 8.1 mph - N/A   Overcast
7:52 AM 30.9 °F 25.2 °F 28.0 °F 89% 29.98 in 10.0 mi WNW 5.8 mph - N/A   Overcast
8:52 AM 32.0 °F 24.8 °F 27.0 °F 82% 30.00 in 10.0 mi WNW 8.1 mph - N/A   Overcast
9:52 AM 33.1 °F 26.1 °F 27.0 °F 78% 30.02 in 10.0 mi NW 8.1 mph - N/A   Overcast
10:43 AM 33.8 °F 26.4 °F 28.4 °F 81% 29.99 in 10.0 mi WNW 9.2 mph - N/A   Overcast
10:52 AM 34.0 °F 26.0 °F 28.0 °F 79% 30.04 in 6.0 mi WNW 10.4 mph - N/A   Haze
11:24 AM 33.8 °F 25.8 °F 28.4 °F 81% 30.01 in 2.5 mi NW 10.4 mph - 0.00 in Snow Light Snow
11:30 AM 33.8 °F 26.4 °F 28.4 °F 81% 30.01 in 3.0 mi NW 9.2 mph - 0.00 in Snow Light Snow
11:52 AM 34.0 °F 26.0 °F 28.9 °F 82% 30.05 in 2.5 mi NW 10.4 mph - 0.00 in Snow Light Snow
12:00 PM 33.8 °F 25.8 °F 30.2 °F 87% 30.02 in 1.0 mi NW 10.4 mph - 0.00 in Snow Light Snow
12:08 PM 33.8 °F 25.3 °F 30.2 °F 87% 30.02 in 0.8 mi NW 11.5 mph 19.6 mph 0.00 in Snow Light Snow
12:15 PM 33.8 °F 24.3 °F 30.2 °F 87% 30.02 in 1.8 mi NW 13.8 mph - 0.00 in Snow Light Snow
12:26 PM 33.8 °F 27.0 °F 30.2 °F 87% 30.02 in 0.8 mi WNW 8.1 mph - 0.00 in Snow Light Snow
12:30 PM 33.8 °F 27.7 °F 30.2 °F 87% 30.02 in 1.5 mi West 6.9 mph - 0.00 in Snow Light Snow
12:34 PM 35.6 °F 29.9 °F 30.2 °F 81% 30.02 in 3.0 mi West 6.9 mph - 0.00 in Snow Light Snow
12:52 PM 36.0 °F 29.6 °F 30.0 °F 79% 30.05 in 10.0 mi WNW 8.1 mph - 0.00 in   Overcast
1:36 PM 39.2 °F 34.2 °F 28.4 °F 65% 30.02 in 10.0 mi WNW 6.9 mph - N/A   Overcast
1:52 PM 39.0 °F 32.3 °F 30.0 °F 70% 30.06 in 10.0 mi WNW 10.4 mph - N/A   Mostly Cloudy
2:13 PM 39.2 °F 33.0 °F 28.4 °F 65% 30.02 in 10.0 mi West 9.2 mph - N/A   Scattered Clouds
2:52 PM 39.0 °F 32.3 °F 28.0 °F 65% 30.06 in 10.0 mi WNW 10.4 mph - N/A   Partly Cloudy
3:31 PM 39.2 °F 31.6 °F 28.4 °F 65% 30.02 in 10.0 mi West 12.7 mph - N/A   Mostly Cloudy
3:52 PM 39.0 °F 32.3 °F 28.0 °F 65% 30.06 in 10.0 mi West 10.4 mph - N/A   Mostly Cloudy
4:00 PM 39.2 °F 33.0 °F 28.4 °F 65% 30.02 in 10.0 mi West 9.2 mph - N/A   Mostly Cloudy
4:08 PM 39.2 °F 32.0 °F 28.4 °F 65% 30.02 in 10.0 mi WNW 11.5 mph - N/A   Overcast
4:52 PM 41.0 °F 34.3 °F 25.0 °F 53% 30.06 in 10.0 mi West 11.5 mph 16.1 mph N/A   Partly Cloudy
5:52 PM 37.9 °F 30.5 °F 27.0 °F 65% 30.06 in 10.0 mi West 11.5 mph 17.3 mph N/A   Mostly Cloudy
6:52 PM 36.0 °F 28.5 °F 28.0 °F 73% 30.09 in 10.0 mi West 10.4 mph - N/A   Overcast
7:52 PM 34.0 °F 26.6 °F 28.9 °F 82% 30.11 in 10.0 mi West 9.2 mph - N/A   Overcast
8:20 PM 33.8 °F 25.8 °F 30.2 °F 87% 30.07 in 10.0 mi West 10.4 mph - 0.00 in   Overcast
8:52 PM 34.0 °F 26.6 °F 30.0 °F 85% 30.12 in 8.0 mi West 9.2 mph - 0.00 in Snow Light Snow
9:16 PM 33.8 °F 27.7 °F 30.2 °F 87% 30.09 in 4.0 mi West 6.9 mph - 0.00 in Snow Light Snow
9:34 PM 33.8 °F 26.4 °F 30.2 °F 87% 30.09 in 3.0 mi West 9.2 mph - 0.00 in Snow Light Snow
9:41 PM 33.8 °F 26.4 °F 30.2 °F 87% 30.10 in 4.0 mi West 9.2 mph - 0.00 in Snow Light Snow
9:52 PM 33.1 °F 26.1 °F 30.9 °F 92% 30.14 in 5.0 mi West 8.1 mph - 0.01 in Snow Light Snow
10:44 PM 33.8 °F 25.8 °F 30.2 °F 87% 30.10 in 8.0 mi West 10.4 mph - 0.00 in Snow Light Snow
10:52 PM 33.1 °F 26.1 °F 30.0 °F 89% 30.14 in 8.0 mi West 8.1 mph - 0.00 in Snow Light Snow
11:52 PM 33.1 °F 26.9 °F 30.0 °F 89% 30.14 in 9.0 mi West 6.9 mph - 0.00 in   Overcast